{"data":{"norad_id":61062,"epoch":"2026-05-25T03:06:35.047584Z","epoch_age_seconds":67854,"freshness":"FRESH","line1":"1 61062U 24164N   26145.12957231  .00000885  00000+0  12159-4 0  9992","line2":"2 61062  53.1597 294.5149 0001035  82.8199 277.2937 15.69710804 97427","mean_motion":15.69710804,"eccentricity":0.0001035,"inclination_deg":53.1597,"raan_deg":294.5149,"arg_perigee_deg":82.8199,"mean_anomaly_deg":277.2937,"bstar":1.2159e-5,"rev_number":9742,"period_min":91.736643229475,"perigee_km":359.02708102048,"apogee_km":360.42181834056,"semimajor_km":6737.8614496805,"source":"CELESTRAK","updated_at":"2026-05-25T13:38:19.355934Z"}}